Regional Weather Roundup
Issued by NWS Binghamton, NY

Home | Current Version | Previous Version | Text Only | Print | Product List | Glossary On
Versions: 1 2 3 4 5 6 7 8 9 10 11 12 13 14 15 16 17 18 19 20 21 22 23 24 25 26 27 28 29 30 31 32 33 34 35 36 37 38 39 40 41 42 43 44 45 46 47 48 49 50
562
ASUS41 KBGM 041910
RWRBGM

REGIONAL WEATHER ROUNDUP
NATIONAL WEATHER SERVICE BINGHAMTON NY
200 PM EST SUN DEC 04 2016

Note: "fair" indicates few or no clouds below 12,000 feet with no
significant weather and/or obstructions to visibility.

* = Station(s) that does not report precipitation, such as rain,
snow, etc, also no thunder or fog.

NYZ009-015>018-022>025-036-037-044>046-055>057-062-042000
...Central New York...

CITY           SKY/WX    TMP DP  RH WIND       PRES   REMARKS
Binghamton     PTSUNNY   36  24  62 MISG      30.16F
Cortland       FAIR      36  27  69 W5        30.19F WCI  32
Dansville      CLOUDY    40  23  50 CALM      30.18F
Elmira         SUNNY     40  22  48 E3        30.18F
Seneca Falls   CLOUDY    39  28  65 E5        30.22F
Ithaca         PTSUNNY   36  24  62 VRB5      30.20F WCI  32
Hamilton       SUNNY     34  23  64 N7        30.20F WCI  28
Monticello     SUNNY     37  19  48 NW6       30.16F WCI  33
Norwich        SUNNY     37  21  52 N5        30.19F WCI  34
Oneonta        SUNNY     34  19  55 NW5       30.16S WCI  30
Penn Yan       MOSUNNY   40  24  53 VRB3      30.19F
Rome           SUNNY     33  22  63 N6        30.26F WCI  28
Sidney         SUNNY     37  19  48 NW5       30.18F WCI  34
Syracuse       MOSUNNY   37  23  56 CALM      30.23F
$$

PAZ038>040-043-044-047-048-072-042000
...Northeast Pennsylvania...

CITY           SKY/WX    TMP DP  RH WIND       PRES   REMARKS
Hazleton       CLOUDY    43  23  45 NW5       30.18F
Scranton       CLOUDY    41  24  51 NW10      30.18F
$$
&&
KEY
WCI = Wind Chill Index
VSB = Visibility
HX  = Heat Index
$$




USA.gov is the U.S. government's official web portal to all federal, state and local government web resources and services.